Date String (YYYY-MM-DD hh:mm:ss) UTC,Instrument flags,Ambient pressure (hPa),Sample flow (lpm),Bypass flow (lpm),Sample temperature (°C),Ambient temperature (°C),ASC tube jacket temperature (°C),LED temperature (°C),Box temperature (°C),Sample RH (%),Span deviation,Mass concentration (μg/m³),Mass concentration (μg/m³),Mass concentration (μg/m³)
DateTimeUTC,F1_M11,P_M11,Q1_M11,Q2_M11,T1_M11,T2_M11,T3_M11,T4_M11,T5_M11,U1_M11,ZSPAN_M11,X0_M11,X2_M11,X1_M11
2022-12-08 02:00:00,,0825.6,5.00,0.00,25.3,23.8,00.0,34.2,27.1,09.9,0000.0,0017.40,0005.48,0004.43
2022-12-08 02:01:00,,0825.6,5.00,0.00,25.3,23.8,00.0,34.2,27.1,09.9,0000.0,0016.73,0005.46,0004.44
2022-12-08 02:02:00,,0825.6,5.00,0.00,25.3,23.8,00.0,34.2,27.1,09.8,0000.0,0015.60,0005.46,0004.44
2022-12-08 02:03:00,,0825.7,5.00,0.00,25.3,23.8,00.0,34.2,27.1,09.8,0000.0,0015.96,0005.48,0004.43
2022-12-08 02:04:00,,0825.6,4.99,0.00,25.3,23.8,00.0,34.2,27.1,09.9,0000.0,0014.85,0005.47,0004.44
2022-12-08 02:05:00,,0825.7,4.99,0.00,25.3,23.7,00.0,34.2,27.1,09.9,0000.0,0015.22,0005.45,0004.44
2022-12-08 02:06:00,,0825.7,5.01,0.00,25.3,23.7,00.0,34.2,27.1,09.8,0000.0,0014.17,0005.43,0004.42
2022-12-08 02:07:00,,0825.7,5.01,0.00,25.3,23.7,00.0,34.2,27.1,09.9,0000.0,0013.00,0005.42,0004.44
2022-12-08 02:08:00,,0825.7,4.99,0.00,25.3,23.7,00.0,34.2,27.1,09.9,0000.0,0012.25,0005.46,0004.45
2022-12-08 02:09:00,,0825.7,4.99,0.00,25.3,23.7,00.0,34.2,27.0,10.1,0000.0,0012.40,0005.46,0004.44
2022-12-08 02:10:00,,0825.7,5.00,0.00,25.2,23.7,00.0,34.2,27.1,10.2,0000.0,0012.48,0005.38,0004.39
2022-12-08 02:11:00,,0825.7,5.00,0.00,25.2,23.7,00.0,34.2,27.0,10.2,0000.0,0012.42,0005.32,0004.36
2022-12-08 02:12:00,,0825.6,5.01,0.00,25.2,23.7,00.0,34.1,27.0,10.2,0000.0,0012.49,0005.29,0004.33
2022-12-08 02:13:00,,0825.7,5.01,0.00,25.2,23.7,00.0,34.1,26.9,10.3,0000.0,0012.28,0005.22,0004.31
2022-12-08 02:14:00,,0825.6,5.00,0.00,25.2,23.6,00.0,34.1,26.9,10.3,0000.0,0011.54,0005.17,0004.29
2022-12-08 02:15:00,,0825.6,5.00,0.00,25.2,23.6,00.0,34.1,26.9,10.3,0000.0,0012.30,0005.15,0004.27
2022-12-08 02:16:00,,0825.6,5.00,0.00,25.1,23.6,00.0,34.1,26.8,10.4,0000.0,0012.70,0005.14,0004.25
2022-12-08 02:17:00,,0825.7,5.00,0.00,25.1,23.5,00.0,34.1,26.8,10.4,0000.0,0012.49,0005.12,0004.24
2022-12-08 02:18:00,,0825.7,4.99,0.00,25.1,23.5,00.0,34.1,26.8,10.5,0000.0,0012.51,0005.12,0004.21
2022-12-08 02:19:00,,0825.7,4.99,0.00,25.1,23.5,00.0,34.1,26.8,10.5,0000.0,0013.18,0005.09,0004.20
2022-12-08 02:20:00,,0825.7,5.00,0.00,25.1,23.4,00.0,34.1,26.8,10.5,0000.0,0013.12,0005.14,0004.23
2022-12-08 02:21:00,,0825.7,5.02,0.00,25.0,23.4,00.0,34.0,26.7,10.5,0000.0,0013.38,0005.25,0004.27
2022-12-08 02:22:00,,0825.7,5.01,0.00,25.0,23.4,00.0,34.0,26.7,10.4,0000.0,0013.79,0005.32,0004.32
2022-12-08 02:23:00,,0825.7,5.00,0.00,25.0,23.3,00.0,34.0,26.7,10.3,0000.0,0013.64,0005.36,0004.36
2022-12-08 02:24:00,,0825.7,5.00,0.00,25.0,23.3,00.0,34.0,26.7,10.3,0000.0,0014.44,0005.43,0004.42
2022-12-08 02:25:00,,0825.7,4.99,0.00,25.0,23.3,00.0,34.0,26.7,10.4,0000.0,0014.67,0005.48,0004.46
2022-12-08 02:26:00,,0825.7,4.99,0.00,24.9,23.3,00.0,34.0,26.6,10.5,0000.0,0013.81,0005.51,0004.48
2022-12-08 02:27:00,,0825.6,5.01,0.00,24.9,23.3,00.0,33.9,26.6,10.5,0000.0,0013.11,0005.52,0004.52
2022-12-08 02:28:00,,0825.6,5.01,0.00,24.9,23.2,00.0,33.9,26.6,10.5,0000.0,0013.57,0005.57,0004.56
2022-12-08 02:29:00,,0825.7,5.00,0.00,24.9,23.2,00.0,33.9,26.6,10.5,0000.0,0014.22,0005.60,0004.59
2022-12-08 02:30:00,,0825.6,4.98,0.00,24.9,23.2,00.0,33.9,26.5,10.5,0000.0,0013.57,0005.59,0004.61
2022-12-08 02:31:00,,0825.6,5.01,0.00,24.8,23.2,00.0,33.9,26.5,10.5,0000.0,0013.14,0005.58,0004.62
2022-12-08 02:32:00,,0825.6,5.01,0.00,24.8,23.2,00.0,33.9,26.5,10.5,0000.0,0012.69,0005.50,0004.61
2022-12-08 02:33:00,,0825.6,4.99,0.00,24.8,23.1,00.0,33.8,26.6,10.6,0000.0,0012.24,0005.46,0004.57
2022-12-08 02:34:00,,0825.6,4.98,0.00,24.8,23.1,00.0,33.8,26.5,10.6,0000.0,0012.03,0005.39,0004.52
2022-12-08 02:35:00,,0825.6,5.00,0.00,24.8,23.1,00.0,33.8,26.5,10.6,0000.0,0011.19,0005.31,0004.48
2022-12-08 02:36:00,,0825.5,5.02,0.00,24.7,23.0,00.0,33.8,26.5,10.6,0000.0,0011.09,0005.28,0004.48
2022-12-08 02:37:00,,0825.5,5.00,0.00,24.7,23.0,00.0,33.8,26.4,10.6,0000.0,0011.30,0005.27,0004.50
2022-12-08 02:38:00,,0825.5,4.99,0.00,24.7,23.0,00.0,33.8,26.5,10.6,0000.0,0011.30,0005.29,0004.49
2022-12-08 02:39:00,,0825.5,4.99,0.00,24.7,23.0,00.0,33.7,26.5,10.5,0000.0,0011.04,0005.30,0004.49
2022-12-08 02:40:00,,0825.5,5.00,0.00,24.7,23.0,00.0,33.7,26.4,10.6,0000.0,0011.03,0005.28,0004.49
2022-12-08 02:41:00,,0825.5,5.01,0.00,24.6,23.0,00.0,33.7,26.4,10.6,0000.0,0010.87,0005.24,0004.47
2022-12-08 02:42:00,,0825.5,5.01,0.00,24.6,23.0,00.0,33.7,26.4,10.6,0000.0,0010.78,0005.16,0004.44
2022-12-08 02:43:00,,0825.5,4.99,0.00,24.6,23.0,00.0,33.7,26.4,10.6,0000.0,0010.90,0005.14,0004.41
2022-12-08 02:44:00,,0825.6,5.00,0.00,24.6,23.0,00.0,33.6,26.4,10.6,0000.0,0010.94,0005.13,0004.39
2022-12-08 02:45:00,,0825.5,5.00,0.00,24.6,22.9,00.0,33.6,26.3,10.7,0000.0,0011.28,0005.14,0004.40
2022-12-08 02:46:00,,0825.5,4.99,0.00,24.6,22.9,00.0,33.6,26.3,10.7,0000.0,0011.45,0005.12,0004.38
2022-12-08 02:47:00,,0825.5,5.00,0.00,24.5,22.9,00.0,33.6,26.3,10.7,0000.0,0011.23,0005.05,0004.33
2022-12-08 02:48:00,,0825.5,5.00,0.00,24.5,22.9,00.0,33.6,26.3,10.6,0000.0,0010.95,0004.99,0004.26
2022-12-08 02:49:00,,0825.4,5.01,0.00,24.5,22.9,00.0,33.6,26.2,10.7,0000.0,0011.32,0004.91,0004.21
2022-12-08 02:50:00,,0825.4,5.01,0.00,24.5,22.9,00.0,33.6,26.2,10.7,0000.0,0010.72,0004.84,0004.14
2022-12-08 02:51:00,,0825.4,5.00,0.00,24.5,22.9,00.0,33.5,26.2,10.7,0000.0,0010.13,0004.81,0004.09
2022-12-08 02:52:00,,0825.4,4.99,0.00,24.5,22.9,00.0,33.5,26.2,10.7,0000.0,0010.25,0004.77,0004.04
2022-12-08 02:53:00,,0825.4,4.99,0.00,24.5,22.9,00.0,33.5,26.2,10.7,0000.0,0010.12,0004.71,0004.00
2022-12-08 02:54:00,,0825.4,5.00,0.00,24.5,22.9,00.0,33.5,26.1,10.7,0000.0,0010.00,0004.65,0003.97
2022-12-08 02:55:00,,0825.4,5.00,0.00,24.4,22.8,00.0,33.5,26.1,10.7,0000.0,0009.86,0004.59,0003.94
2022-12-08 02:56:00,,0825.4,5.00,0.00,24.4,22.8,00.0,33.5,26.2,10.7,0000.0,0009.98,0004.52,0003.89
2022-12-08 02:57:00,,0825.4,5.00,0.00,24.4,22.8,00.0,33.5,26.1,10.7,0000.0,0010.26,0004.52,0003.85
2022-12-08 02:58:00,,0825.4,5.00,0.00,24.4,22.8,00.0,33.4,26.1,10.7,0000.0,0010.29,0004.48,0003.80
2022-12-08 02:59:00,,0825.5,5.00,0.00,24.4,22.8,00.0,33.4,26.0,10.7,0000.0,0010.16,0004.42,0003.77
